SENTINEL-3A

Last updated on Mon Sep 21 2026 00:02:41 GMT+0000 (Coordinated Universal Time)

1 41335U 16011A 26263.59317548 .00000028 00000+0 29521-4 0 9998 2 41335 98.6276 329.5954 0001164 106.5035 253.6273 14.26735722551665
UTC large
Height (km)
Speed (km/s)
/
Latitude / Longitude
Inclination (degrees)
Orbital Period (minutes)
Azimuth
Elevation
Range (km)
Doppler Factor

Next 0 passes for location: London (51.5072 / 0.1276)

No passes found over London.
SENTINEL-3A